Location: Central Falls
(41.8900°N, 71.3929°W)
Time: 04:05:48
(UTC+00:00)

Vanguard 2 - Pass Details

Date: 06 December 2023
Orbit: 554 x 2918 km, 32.9° (Epoch: 01 March)

Event Time Altitude Azimuth Distance (km) Brightness Sun altitude
Rises 06:12:27 0° 274° (W) 6,244 - -62.1°
Reaches altitude 10° 06:17:24 10° 268° (W) 4,907 - -61.3°
Maximum altitude 06:28:51 38° 208° (SSW) 2,366 - -59.5°
Drops below altitude 10° 06:36:13 10° 143° (SE) 3,150 - -58.3°
Sets 06:38:43 0° 135° (SE) 3,844 - -57.9°
